DW0268 Weather Reports


time (UTC)temp
C
wind
direction
speed
KPH
gust
KPH
rain 1hr
cm
rain 24hr
cm
rain mn
cm
humidity
%
barometer
mb
20260831233027 33 174 3.2 6.4 0.00 0.00 0.00 64 1018.3
20260831231626 34 182 1.6 11.3 0.00 0.00 0.00 60 1018.2
20260831230024 34 165 4.8 12.9 0.00 0.00 0.00 58 1018.3
20260831224524 34 153 4.8 11.3 0.00 0.00 0.00 56 1018.3
20260831223022 34 174 6.4 12.9 0.00 0.00 0.00 58 1018.5
20260831221531 34 188 6.4 12.9 0.00 0.00 0.00 55 1018.6
20260831220020 34 182 3.2 16.1 0.00 0.00 0.00 57 1018.6
20260831214519 35 163 3.2 12.9 0.00 0.00 0.00 57 1018.7
20260831213017 35 153 4.8 14.5 0.00 0.00 0.00 56 1018.8
20260831211516 34 140 4.8 16.1 0.00 0.00 0.00 57 1018.9
20260831210014 35 171 8.0 17.7 0.00 0.00 0.00 57 1019.1
20260831204512 34 130 8.0 16.1 0.00 0.00 0.00 59 1019.2
20260831203011 34 128 6.4 14.5 0.00 0.00 0.00 58 1019.2
20260831201510 34 207 9.7 17.7 0.00 0.00 0.00 58 1019.2
20260831200008 34 169 11.3 22.5 0.00 0.00 0.00 60 1019.5
20260831194516 34 171 4.8 16.1 0.00 0.00 0.00 60 1019.7
20260831193003 34 140 6.4 16.1 0.00 0.00 0.00 60 1019.9
20260831191502 33 167 11.3 17.7 0.00 0.00 0.00 61 1020.0
20260831190109 33 174 9.7 20.9 0.00 0.00 0.00 62 1020.0
20260831184658 33 165 8.0 25.7 0.00 0.00 0.00 63 1020.0
20260831183057 33 219 11.3 16.1 0.00 0.00 0.00 63 1020.2
20260831181554 33 217 9.7 17.7 0.00 0.00 0.00 63 1020.4
20260831180052 33 202 11.3 19.3 0.00 0.00 0.00 62 1020.6
20260831174557 33 151 4.8 17.7 0.00 0.00 0.00 64 1020.8
20260831173046 32 153 8.0 16.1 0.00 0.00 0.00 67 1021.0
20260831171545 32 201 8.0 16.1 0.00 0.00 0.00 67 1021.2
20260831170111 32 226 9.7 19.3 0.00 0.00 0.00 69 1021.3
20260831164539 32 182 9.7 19.3 0.00 0.00 0.00 69 1021.4
20260831163039 31 180 11.3 17.7 0.00 0.00 0.00 71 1021.5
20260831161532 31 219 12.9 19.3 0.00 0.00 0.00 72 1021.6
20260831160033 31 201 9.7 19.3 0.00 0.00 0.00 74 1021.7
20260831154527 30 165 8.0 16.1 0.00 0.00 0.00 75 1021.5
20260831153024 30 225 9.7 17.7 0.00 0.00 0.00 77 1021.6
20260831151526 29 215 11.3 17.7 0.00 0.00 0.00 78 1021.4
20260831150020 28 185 11.3 19.3 0.00 0.00 0.00 80 1021.2
20260831144524 28 188 11.3 16.1 0.00 0.00 0.00 82 1021.2
20260831143011 27 214 14.5 19.3 0.00 0.00 0.00 83 1021.1
20260831141512 27 199 6.4 12.9 0.00 0.00 0.00 86 1021.1
20260831140003 26 207 6.4 12.9 0.00 0.00 0.00 88 1021.2
20260831134600 26 216 8.0 12.9 0.00 0.00 0.00 89 1021.1
20260831133059 25 209 8.0 14.5 0.00 0.00 0.00 90 1021.2
20260831131557 24 196 6.4 12.9 0.00 0.00 0.00 92 1021.2
20260831130054 23 178 3.2 8.0 0.00 0.00 0.00 94 1021.0
20260831124553 23 168 3.2 8.0 0.00 0.00 0.00 94 1020.9
20260831123054 22 155 1.6 4.8 0.00 0.00 0.00 95 1020.7
20260831121550 22 150 1.6 3.2 0.00 0.00 0.00 95 1020.5
20260831120049 22 148 3.2 4.8 0.00 0.00 0.00 94 1020.4
20260831114547 21 148 0.0 1.6 0.00 0.00 0.00 94 1020.4
20260831113051 22 148 1.6 4.8 0.00 0.00 0.00 93 1020.3
20260831111544 22 145 1.6 4.8 0.00 0.00 0.00 94 1020.1
20260831110042 22 136 0.0 3.2 0.00 0.00 0.00 93 1020.0
20260831104545 22 135 1.6 3.2 0.00 0.00 0.00 93 1019.8
20260831103056 22 134 3.2 6.4 0.00 0.00 0.00 93 1019.7
20260831101540 22 133 3.2 6.4 0.00 0.00 0.00 93 1019.7
20260831100039 22 169 1.6 4.8 0.00 0.00 0.00 93 1019.5
20260831094535 22 169 0.0 4.8 0.00 0.00 0.00 93 1019.4
20260831093035 22 169 1.6 4.8 0.00 0.00 0.00 93 1019.3
20260831091533 22 169 1.6 4.8 0.00 0.00 0.00 93 1019.2
20260831090032 22 169 1.6 3.2 0.00 0.00 0.00 93 1019.2
20260831084531 22 169 1.6 3.2 0.00 0.00 0.00 92 1019.0
20260831083029 23 169 0.0 0.0 0.00 0.00 0.00 91 1019.0
20260831081528 23 169 0.0 0.0 0.00 0.00 0.00 91 1019.1
20260831080046 23 169 0.0 4.8 0.00 0.00 0.00 91 1018.7
20260831074524 23 169 1.6 4.8 0.00 0.00 0.00 90 1018.6
20260831073030 23 157 4.8 8.0 0.00 0.00 0.00 90 1018.6
20260831071521 23 163 1.6 4.8 0.00 0.00 0.00 90 1018.8
20260831070023 23 163 1.6 4.8 0.00 0.00 0.00 89 1018.9
20260831064517 24 159 1.6 4.8 0.00 0.00 0.00 88 1019.1
20260831063020 24 154 1.6 4.8 0.00 0.00 0.00 88 1019.0
20260831061515 24 150 3.2 8.0 0.00 0.00 0.00 87 1019.0
20260831060013 24 142 4.8 8.0 0.00 0.00 0.00 85 1019.1
20260831054511 24 144 3.2 4.8 0.00 0.00 0.00 85 1019.2
20260831053014 25 144 1.6 3.2 0.00 0.00 0.00 84 1019.2
20260831051511 25 144 3.2 8.0 0.00 0.00 0.00 83 1019.2
20260831050004 25 132 6.4 11.3 0.00 0.00 0.00 83 1019.0
20260831044512 25 123 3.2 6.4 0.00 0.00 0.00 82 1019.1
20260831043003 25 115 4.8 6.4 0.00 0.00 0.00 80 1019.1
20260831041508 26 113 6.4 9.7 0.00 0.00 0.00 78 1019.0
20260831040001 26 112 4.8 11.3 0.00 0.00 0.00 76 1019.1
20260831034501 27 112 6.4 14.5 0.00 0.00 0.00 75 1019.0
20260831033001 27 115 8.0 12.9 0.00 0.00 0.00 74 1018.9
20260831031610 27 115 4.8 9.7 0.00 0.00 0.00 72 1018.9
20260831031501 27 115 4.8 9.7 0.00 0.00 0.00 72 1018.8
20260831030116 27 113 3.2 6.4 0.00 0.00 0.00 74 1018.8
20260831024559 27 109 1.6 4.8 0.00 0.00 0.00 74 1018.9
20260831023059 27 108 3.2 9.7 0.00 0.00 0.00 72 1018.7
20260831021559 27 109 4.8 9.7 0.00 0.00 0.00 72 1018.6
20260831020058 27 118 4.8 9.7 0.00 0.00 0.00 73 1018.5
20260831014558 28 145 1.6 4.8 0.00 0.00 0.00 74 1018.5
20260831013057 28 207 0.0 1.6 0.00 0.00 0.00 72 1018.4
20260831011557 28 207 1.6 4.8 0.00 0.00 0.00 69 1018.1
20260831010101 30 209 1.6 3.2 0.00 0.00 0.00 67 1018.1
20260831004553 30 209 1.6 3.2 0.00 0.00 0.00 63 1018.1
20260831003052 31 209 0.0 1.6 0.00 0.00 0.00 63 1018.0
20260831001550 32 209 1.6 3.2 0.00 0.00 0.00 61 1017.8
20260831000059 32 209 1.6 3.2 0.00 0.00 0.00 61 1017.7
20260830234558 32 209 3.2 4.8 0.00 0.00 0.00 61 1017.8